Regional Weather Roundup
Issued by NWS Little Rock, AR

Home | Current Version | Previous Version | Graphics & Text | Print | Product List | Glossary On
Versions: 1 2 3 4 5 6 7 8 9 10 11 12 13 14 15 16 17 18 19 20 21 22 23 24 25 26 27
000
ASUS44 KLZK 250105
RWRLZK

WEATHER ROUNDUP FOR ARKANSAS
NATIONAL WEATHER SERVICE LITTLE ROCK AR
800 PM CDT FRI OCT 24 2014

NOTE: "FAIR" INDICATES FEW OR NO CLOUDS BELOW 12,000 FEET WITH NO
SIGNIFICANT WEATHER AND/OR OBSTRUCTIONS TO VISIBILITY.

ARZ001-003-010-029-250200-
NORTHWEST ARKANSAS

CITY           SKY/WX    TMP DP  RH WIND       PRES   REMARKS
FAYETTEVILLE   MOCLDY    60  59  96 CALM      30.09R
FORT SMITH     MOCLDY    67  62  84 CALM      30.07R
HARRISON       CLEAR     65  60  84 SW3       30.08S
BENTONVILLE    PTCLDY    64  57  77 S6        30.08S
ROGERS         PTCLDY    65  59  81 S10       30.09S
SILOAM SPGS    PTCLDY    64  55  72 S6        30.09S
HIGHFILL       PTCLDY    64  60  87 S5        30.08S
SPRINGDALE     MOCLDY    64  59  82 S5        30.11R
$$

ARZ004-005-016-250200-
NORTH CENTRAL ARKANSAS

CITY           SKY/WX    TMP DP  RH WIND       PRES   REMARKS
BATESVILLE     CLEAR     64  55  72 S3        30.08R
FLIPPIN        CLEAR     63  55  77 CALM      30.07R
MTN HOME       CLEAR     64  58  80 SE5       30.06S
$$

ARZ040-041-250200-
WEST CENTRAL ARKANSAS

CITY           SKY/WX    TMP DP  RH WIND       PRES   REMARKS
MENA           MOCLDY    64  61  88 CALM      30.12R
MOUNT IDA      PTCLDY    63  60  90 CALM      30.08R
$$

ARZ009-017-025-026-028-250200-
NORTHEAST ARKANSAS

CITY           SKY/WX    TMP DP  RH WIND       PRES   REMARKS
CORNING        FAIR      63  57  82 S5        30.07R
JONESBORO      PTCLDY    62  57  83 CALM      30.07S
NEWPORT        CLEAR     63  57  80 S8        30.09R
WALNUT RIDGE   PTCLDY    63  54  72 S5        30.06S
BLYTHEVILLE    PTCLDY    62  55  77 W3        30.08S
$$

ARZ022-023-033-042-044-250200-
CENTRAL ARKANSAS

CITY           SKY/WX    TMP DP  RH WIND       PRES   REMARKS
LITTLE ROCK    MOCLDY    66  55  67 S3        30.10R
N LITTLE ROCK  MOCLDY    65  59  80 SW5       30.10R
JACKSONVILLE   PTCLDY    60  57  91 S5        30.09R
SEARCY         CLEAR     59  57  93 CALM      30.10S
HOT SPRINGS    PTCLDY    62  57  83 NE3       30.11R
RUSSELLVILLE   MOCLDY    63  60  90 CALM      30.07S
$$

ARZ036-250200-
EAST ARKANSAS

CITY           SKY/WX    TMP DP  RH WIND       PRES   REMARKS
WEST MEMPHIS   CLEAR     60  57  89 CALM      30.08R
$$

ARZ050-053-066-070-073-250200-
SOUTHWEST ARKANSAS

CITY           SKY/WX    TMP DP  RH WIND       PRES   REMARKS
ARKADELPHIA    FAIR      62  62 100 CALM      30.11R
CAMDEN         PTCLDY    57  55  94 CALM      30.11S
TEXARKANA      MOCLDY    66  58  75 S3        30.10S
EL DORADO      PTCLDY    58  56  93 CALM      30.12R
DE QUEEN       PTCLDY    63  62  97 CALM      30.08R
$$

ARZ056-057-069-250200-
SOUTHEAST ARKANSAS

CITY           SKY/WX    TMP DP  RH WIND       PRES   REMARKS
PINE BLUFF     PTCLDY    62  57  83 CALM      30.11R
STUTTGART      CLEAR     64  54  68 S6        30.11S
MONTICELLO     CLEAR     59  56  89 CALM      30.11R

$$





USA.gov is the U.S. government's official web portal to all federal, state and local government web resources and services.